Location: *
(50.3440°N, 18.6237°E)
Time: 13:02:51
(UTC+00:00)

Cosmos 2218 Rocket - Pass Details

Date: 30 November 2020
Orbit: 956 x 1005 km, 82.9° (Epoch: 26 January)

Event Time Altitude Azimuth Distance (km) Brightness Sun altitude
Rises 16:00:31 0° 351° (N) 3,653 6.9 -11.4°
Reaches altitude 10° 16:03:03 10° 354° (N) 2,701 6.2 -11.8°
Maximum altitude 16:09:12 69° 78° (ENE) 1,026 3.9 -12.7°
Drops below altitude 10° 16:15:19 10° 161° (SSE) 2,689 6.3 -13.7°
Sets 16:17:50 0° 164° (SSE) 3,635 7.0 -14.1°
